Location: *
(47.6569°N, 7.4256°E)
Time: 09:39:40
(UTC+00:00)

CZ-4 R/B - Pass Details

Date: 14 December 2019
Orbit: 533 x 597 km, 97.7° (Epoch: 28 January)

Event Time Altitude Azimuth Distance (km) Brightness Sun altitude
Rises 18:43:17 0° 201° (SSW) 2,693 5.1 -29.9°
Reaches altitude 10° 18:45:51 10° 219° (SW) 1,798 4.4 -30.4°
Maximum altitude 18:48:44 20° 267° (W) 1,288 3.9 -30.8°
Drops below altitude 10° 18:51:37 10° 315° (NW) 1,798 4.4 -31.3°
Sets 18:54:12 0° 333° (NNW) 2,693 5.2 -31.8°
